AB0DE-15 Weather Reports


Display with metric or nautical units.
time (UTC)temp
F
wind
direction
speed
MPH
gust
MPH
rain 1hr
in
rain 24hr
in
rain mn
in
humidity
%
barometer
mb
20260504050511 47 146 0.0 0.0 0.00 0.00 0.00 64 1003.3
20260504045506 48 146 0.0 0.0 0.00 0.00 0.00 64 1003.5
20260504045004 47 147 0.0 0.0 0.00 0.00 0.00 64 1003.4
20260504044516 47 146 0.0 0.0 0.00 0.00 0.00 65 1003.5
20260504044004 47 146 0.0 0.0 0.00 0.00 0.00 64 1003.6
20260504043504 48 146 0.0 0.0 0.00 0.00 0.00 63 1003.7
20260504043010 48 146 0.0 0.0 0.00 0.00 0.00 61 1003.7
20260504042504 48 146 0.0 0.0 0.00 0.00 0.00 61 1003.8
20260504042005 48 146 0.0 0.0 0.00 0.00 0.00 62 1003.8
20260504041514 48 146 0.0 0.0 0.00 0.00 0.00 62 1003.9
20260504041004 49 146 0.0 0.0 0.00 0.00 0.00 61 1004.0
20260504040507 49 147 0.0 0.0 0.00 0.00 0.00 60 1004.1
20260504040026 49 146 0.0 0.0 0.00 0.00 0.00 61 1004.2
20260504035508 49 146 0.0 0.0 0.00 0.00 0.00 62 1004.3
20260504035010 49 146 0.0 0.0 0.00 0.00 0.00 60 1004.3
20260504034526 49 146 0.0 0.0 0.00 0.00 0.00 59 1004.4
20260504034010 50 146 0.0 0.0 0.00 0.00 0.00 60 1004.6
20260504033503 51 146 0.0 0.0 0.00 0.00 0.00 58 1004.5
20260504033011 51 146 0.0 0.0 0.00 0.00 0.00 56 1004.5
20260504032504 51 146 0.0 0.0 0.00 0.00 0.00 56 1004.6
20260504032004 52 148 0.0 0.0 0.00 0.00 0.00 56 1004.8
20260504031512 52 148 0.0 0.0 0.00 0.00 0.00 55 1004.9
20260504031005 53 148 0.0 0.0 0.00 0.00 0.00 54 1004.9
20260504030506 53 148 0.0 0.0 0.00 0.00 0.00 53 1005.0
20260504030018 52 136 0.0 0.0 0.00 0.00 0.00 53 1005.1
20260504025509 52 15 0.0 0.0 0.00 0.00 0.00 53 1005.1
20260504025008 52 15 0.0 0.0 0.00 0.00 0.00 53 1005.1
20260504024523 53 15 0.0 0.0 0.00 0.00 0.00 53 1005.0
20260504024006 53 15 0.0 0.0 0.00 0.00 0.00 51 1005.0
20260504023506 54 15 0.0 0.0 0.00 0.00 0.00 49 1004.9
20260504023025 55 15 0.0 0.0 0.00 0.00 0.00 48 1005.0
20260504022511 55 15 0.0 0.0 0.00 0.00 0.00 46 1004.9
20260504022004 56 15 0.0 0.0 0.00 0.00 0.00 46 1004.9
20260504021508 55 15 0.0 0.0 0.00 0.00 0.00 45 1004.8
20260504021006 56 15 0.0 0.0 0.00 0.00 0.00 45 1004.8
20260504020503 56 15 0.0 0.0 0.00 0.00 0.00 44 1004.8
20260504020017 57 15 0.0 0.0 0.00 0.00 0.00 43 1004.8
20260504015505 57 15 0.0 0.0 0.00 0.00 0.00 43 1004.8
20260504015007 58 15 0.0 0.0 0.00 0.00 0.00 42 1004.8
20260504014538 58 15 0.0 0.0 0.00 0.00 0.00 41 1004.7
20260504014006 59 15 0.0 0.0 0.00 0.00 0.00 40 1004.7
20260504013507 60 15 0.0 0.0 0.00 0.00 0.00 39 1004.7
20260504013025 61 15 0.0 0.0 0.00 0.00 0.00 38 1004.7
20260504012510 62 15 0.0 0.0 0.00 0.00 0.00 37 1004.6
20260504012008 63 15 0.0 1.0 0.00 0.00 0.00 36 1004.7
20260504011524 63 16 0.0 1.0 0.00 0.00 0.00 34 1004.7
20260504011010 64 309 0.0 2.0 0.00 0.00 0.00 34 1004.7
20260504010513 65 309 0.0 2.0 0.00 0.00 0.00 33 1004.6
20260504010010 66 275 0.0 3.0 0.00 0.00 0.00 31 1004.6
20260504005503 66 300 0.0 3.0 0.00 0.00 0.00 30 1004.6
20260504005003 67 290 0.0 4.0 0.00 0.00 0.00 30 1004.6
20260504004519 67 205 1.0 4.0 0.00 0.00 0.00 30 1004.6
20260504004004 68 305 0.0 5.0 0.00 0.00 0.00 29 1004.7
20260504003508 69 295 1.0 5.0 0.00 0.00 0.00 28 1004.7
20260504003022 69 185 2.0 4.0 0.00 0.00 0.00 28 1004.7
20260504002509 70 296 1.0 4.0 0.00 0.00 0.00 28 1004.8
20260504002006 70 277 1.0 7.0 0.00 0.00 0.00 27 1004.8
20260504001504 70 321 2.0 10.0 0.00 0.00 0.00 27 1004.8
20260504001004 70 346 3.0 10.0 0.00 0.00 0.00 28 1004.8
20260504000502 70 224 4.0 10.0 0.00 0.00 0.00 27 1004.8
20260504000020 70 245 2.0 8.0 0.00 0.00 0.00 28 1004.7
20260503235505 70 309 3.0 8.0 0.00 0.00 0.00 28 1004.8
20260503235004 71 318 4.0 8.0 0.00 0.00 0.00 27 1004.8
20260503234515 71 5 2.0 8.0 0.00 0.00 0.00 29 1004.8
20260503234005 71 283 1.0 8.0 0.00 0.00 0.00 29 1004.8
20260503233504 71 248 2.0 7.0 0.00 0.00 0.00 28 1005.0
20260503233021 71 232 2.0 7.0 0.00 0.00 0.00 27 1005.1
20260503232510 71 236 1.0 7.0 0.00 0.00 0.00 27 1005.1
20260503232007 71 171 2.0 6.0 0.00 0.00 0.00 27 1005.1
20260503231527 71 159 2.0 7.0 0.00 0.00 0.00 26 1005.1
20260503231009 71 18 3.0 10.0 0.00 0.00 0.00 25 1005.2
20260503230507 71 293 2.0 12.0 0.00 0.00 0.00 25 1005.2
20260503230007 72 278 4.0 12.0 0.00 0.00 0.00 24 1005.1
20260503225506 72 305 3.0 8.0 0.00 0.00 0.00 25 1005.0
20260503225003 72 279 3.0 8.0 0.00 0.00 0.00 25 1005.0
20260503224513 72 271 3.0 10.0 0.00 0.00 0.00 27 1004.9
20260503224005 72 243 2.0 10.0 0.00 0.00 0.00 25 1005.0
20260503223503 72 13 2.0 10.0 0.00 0.00 0.00 28 1005.0
20260503223013 72 259 3.0 10.0 0.00 0.00 0.00 26 1004.9
20260503222505 72 344 2.0 7.0 0.00 0.00 0.00 29 1005.0
20260503222007 72 329 3.0 9.0 0.00 0.00 0.00 29 1004.9
20260503221518 71 268 1.0 9.0 0.00 0.00 0.00 30 1004.9
20260503221009 72 210 3.0 9.0 0.00 0.00 0.00 28 1004.9
20260503220504 71 44 0.0 10.0 0.00 0.00 0.00 29 1004.8
20260503220027 71 194 4.0 9.0 0.00 0.00 0.00 27 1004.8
20260503215507 72 314 1.0 11.0 0.00 0.00 0.00 28 1004.9
20260503215012 71 320 4.0 11.0 0.00 0.00 0.00 26 1004.9
20260503214522 71 259 4.0 11.0 0.00 0.00 0.00 28 1004.9
20260503214004 71 231 5.0 11.0 0.00 0.00 0.00 28 1004.9
20260503213507 71 250 1.0 11.0 0.00 0.00 0.00 32 1004.8
20260503213012 70 242 5.0 11.0 0.00 0.00 0.00 29 1004.8
20260503212504 71 262 4.0 10.0 0.00 0.00 0.00 30 1004.9
20260503212005 71 291 5.0 10.0 0.00 0.00 0.00 31 1004.9
20260503211520 71 318 5.0 13.0 0.00 0.00 0.00 30 1005.0
20260503211004 71 242 6.0 13.0 0.00 0.00 0.00 29 1005.0
20260503210505 71 278 4.0 10.0 0.00 0.00 0.00 30 1004.9
20260503210039 71 212 2.0 10.0 0.00 0.00 0.00 31 1005.1
20260503205506 71 257 3.0 10.0 0.00 0.00 0.00 32 1005.2
20260503205007 71 294 5.0 10.0 0.00 0.00 0.00 33 1005.2
20260503204526 71 259 3.0 10.0 0.00 0.00 0.00 35 1005.2
20260503204010 71 226 4.0 10.0 0.00 0.00 0.00 33 1005.3
20260503203507 72 240 5.0 10.0 0.00 0.00 0.00 33 1005.3
20260503203014 72 229 3.0 11.0 0.00 0.00 0.00 34 1005.3
20260503202504 71 325 1.0 11.0 0.00 0.00 0.00 32 1005.4
20260503202004 71 155 3.0 8.0 0.00 0.00 0.00 33 1005.4
20260503201519 70 270 1.0 8.0 0.00 0.00 0.00 34 1005.4
20260503201004 70 264 2.0 8.0 0.00 0.00 0.00 32 1005.4
20260503200505 71 255 4.0 12.0 0.00 0.00 0.00 31 1005.5
20260503200017 70 310 3.0 12.0 0.00 0.00 0.00 34 1005.5
20260503195507 70 240 5.0 12.0 0.00 0.00 0.00 31 1005.4
20260503195007 71 280 2.0 8.0 0.00 0.00 0.00 33 1005.5
20260503194523 70 326 2.0 10.0 0.00 0.00 0.00 32 1005.5
20260503194007 70 257 2.0 12.0 0.00 0.00 0.00 31 1005.6
20260503193506 70 228 3.0 12.0 0.00 0.00 0.00 31 1005.7
20260503193029 70 294 6.0 10.0 0.00 0.00 0.00 31 1005.6
20260503192510 70 304 3.0 10.0 0.00 0.00 0.00 37 1005.6
20260503192008 70 141 1.0 13.0 0.00 0.00 0.00 33 1005.5
20260503191509 70 174 5.0 13.0 0.00 0.00 0.00 33 1005.6
20260503191003 70 287 3.0 9.0 0.00 0.00 0.00 34 1005.6
20260503190503 70 267 2.0 12.0 0.00 0.00 0.00 34 1005.6
20260503190015 70 200 3.0 14.0 0.00 0.00 0.00 33 1005.6
20260503185503 70 110 3.0 14.0 0.00 0.00 0.00 34 1005.6
20260503185013 70 277 2.0 12.0 0.00 0.00 0.00 32 1005.7
20260503184529 70 321 5.0 9.0 0.00 0.00 0.00 31 1005.8
20260503184011 69 285 2.0 9.0 0.00 0.00 0.00 32 1005.8
20260503183508 69 26 1.0 11.0 0.00 0.00 0.00 37 1005.8
20260503183026 69 214 3.0 11.0 0.00 0.00 0.00 35 1005.8
20260503182507 69 339 3.0 8.0 0.00 0.00 0.00 37 1005.8
20260503182010 69 359 3.0 8.0 0.00 0.00 0.00 37 1005.9
20260503181529 69 38 2.0 12.0 0.00 0.00 0.00 38 1005.9
20260503181009 69 252 3.0 12.0 0.00 0.00 0.00 37 1006.0
20260503180507 68 260 2.0 12.0 0.00 0.00 0.00 39 1006.0
20260503180028 68 12 5.0 12.0 0.00 0.00 0.00 38 1006.0
20260503175506 68 349 2.0 7.0 0.00 0.00 0.00 41 1006.0
20260503175003 67 30 3.0 8.0 0.00 0.00 0.00 41 1006.0
20260503174524 67 210 3.0 8.0 0.00 0.00 0.00 39 1006.1
20260503174004 67 49 2.0 10.0 0.00 0.00 0.00 41 1006.1
20260503173506 67 23 5.0 10.0 0.00 0.00 0.00 39 1006.1
20260503173021 67 284 3.0 8.0 0.00 0.00 0.00 43 1006.1
20260503172506 66 308 1.0 8.0 0.00 0.00 0.00 43 1006.1
20260503172010 66 154 3.0 9.0 0.00 0.00 0.00 41 1006.2
20260503171528 66 305 3.0 10.0 0.00 0.00 0.00 41 1006.1
20260503171008 66 283 3.0 12.0 0.00 0.00 0.00 42 1006.1
20260503170513 66 294 3.0 12.0 0.00 0.00 0.00 43 1006.0
20260503151003 60 251 3.0 11.0 0.00 0.00 0.00 48 1005.8
20260503150502 59 231 4.0 11.0 0.00 0.00 0.00 48 1005.8
20260503131004 54 233 5.0 11.0 0.00 0.00 0.00 50 1005.9
20260503130505 54 215 5.0 11.0 0.00 0.00 0.00 51 1005.8
20260503110504 53 231 4.0 19.0 0.00 0.00 0.00 53 1005.8
20260503090507 55 156 6.0 11.0 0.00 0.00 0.00 47 1007.2
20260503081523 55 207 5.0 11.0 0.00 0.00 0.00 50 1008.5
20260503081007 55 176 2.0 7.0 0.00 0.00 0.00 51 1008.7
20260503080507 55 255 3.0 6.0 0.00 0.00 0.00 52 1008.8
20260503072503 55 243 5.0 10.0 0.00 0.00 0.00 46 1008.8
20260503072005 55 233 6.0 10.0 0.00 0.00 0.00 46 1008.7
20260503071534 55 266 4.0 11.0 0.00 0.00 0.00 47 1008.8
20260503071009 55 222 4.0 13.0 0.00 0.00 0.00 46 1008.9
20260503070507 55 233 5.0 13.0 0.00 0.00 0.00 46 1008.9
20260503055008 56 201 2.0 9.0 0.00 0.00 0.00 45 1009.6
20260503054533 56 232 2.0 9.0 0.00 0.00 0.00 46 1009.6
20260503054006 56 236 3.0 9.0 0.00 0.00 0.00 45 1009.7
20260503053507 56 194 3.0 8.0 0.00 0.00 0.00 45 1009.9
20260503053008 56 242 4.0 8.0 0.00 0.00 0.00 45 1009.9
20260503052505 56 234 3.0 8.0 0.00 0.00 0.00 45 1010.0